When you browse on this site, cookies collect data to enhance your experience and personalize the content and advertising you see.
Visit our Privacy Policy to learn more. By continuing to use the site, you agree to this use of cookies and data.
  • In United Kingdom
  • List of Countries
  • For 7 days
  • Water Temperature
  • Weather Map
  • Weather Widgets
  • user-avatar
    Login

    Hourly Weather Mbandaka

    Today, 16 September, Monday

    Time Temperature Precipitation Wind Pressure Humidity
    00:00 +24°C° 0 mm 1 mps 730 mmHg 95%
    01:00 +24°C° 0 mm 1 mps 730 mmHg 95%
    02:00 +24°C° 0 mm 1 mps 730 mmHg 96%
    03:00 +24°C° 0 mm 1 mps 730 mmHg 96%
    04:00 +24°C° 0 mm 1 mps 730 mmHg 96%
    05:00 +24°C° 0.2 mm 1 mps 730 mmHg 95%
    06:00 +25°C° 0.2 mm 1 mps 731 mmHg 93%
    07:00 +25°C° 0.2 mm 1 mps 732 mmHg 92%
    08:00 +26°C° 1.4 mm 1 mps 732 mmHg 89%
    09:00 +27°C° 1.4 mm 1 mps 732 mmHg 87%
    10:00 +28°C° 1.4 mm 1 mps 732 mmHg 85%
    11:00 +29°C° 1.5 mm 2 mps 732 mmHg 81%
    12:00 +30°C° 1.5 mm 2 mps 731 mmHg 77%
    13:00 +31°C° 1.5 mm 2 mps 730 mmHg 73%
    14:00 +31°C° 0.6 mm 2 mps 729 mmHg 72%
    15:00 +31°C° 0.6 mm 1 mps 729 mmHg 72%
    16:00 +31°C° 0.6 mm 1 mps 729 mmHg 72%
    17:00 +29°C° 0.1 mm 1 mps 729 mmHg 76%
    18:00 +28°C° 0.1 mm 1 mps 730 mmHg 81%
    19:00 +27°C° 0.1 mm 1 mps 730 mmHg 86%
    20:00 +26°C° 0 mm 1 mps 730 mmHg 87%
    21:00 +26°C° 0 mm 1 mps 731 mmHg 89%
    22:00 +25°C° 0 mm 1 mps 731 mmHg 90%
    23:00 +25°C° 0 mm 1 mps 731 mmHg 90%

    Tomorrow, 17 September, Tuesday

    Time Temperature Precipitation Wind Pressure Humidity
    00:00 +25°C° 0 mm 1 mps 730 mmHg 90%
    01:00 +25°C° 0 mm 1 mps 730 mmHg 89%
    02:00 +25°C° 0 mm 1 mps 730 mmHg 90%
    03:00 +25°C° 0 mm 1 mps 730 mmHg 91%
    04:00 +25°C° 0 mm 1 mps 730 mmHg 91%
    05:00 +25°C° 0 mm 1 mps 731 mmHg 89%
    06:00 +26°C° 0 mm 1 mps 731 mmHg 87%
    07:00 +26°C° 0 mm 2 mps 731 mmHg 85%
    08:00 +28°C° 0 mm 2 mps 731 mmHg 76%
    09:00 +30°C° 0 mm 2 mps 731 mmHg 66%
    10:00 +32°C° 0 mm 2 mps 732 mmHg 57%
    11:00 +34°C° 0 mm 2 mps 730 mmHg 55%
    12:00 +35°C° 0 mm 2 mps 729 mmHg 52%
    13:00 +34°C° 0 mm 1 mps 728 mmHg 49%
    14:00 +34°C° 0.1 mm 1 mps 728 mmHg 51%
    15:00 +34°C° 0.1 mm 1 mps 727 mmHg 52%
    16:00 +34°C° 0.1 mm 1 mps 727 mmHg 53%
    17:00 +32°C° 0.2 mm 1 mps 727 mmHg 61%
    18:00 +30°C° 0.2 mm 1 mps 728 mmHg 70%
    19:00 +27°C° 0.2 mm 1 mps 728 mmHg 79%
    20:00 +27°C° 0.4 mm 1 mps 729 mmHg 82%
    21:00 +26°C° 0.4 mm 1 mps 729 mmHg 86%
    22:00 +26°C° 0.4 mm 1 mps 730 mmHg 89%
    23:00 +25°C° 0.8 mm 1 mps 730 mmHg 91%

    Day after tomorrow, 18 September, Wednesday

    Time Temperature Precipitation Wind Pressure Humidity
    00:00 +25°C° 0.8 mm 1 mps 730 mmHg 94%
    01:00 +25°C° 0.8 mm 1 mps 729 mmHg 96%
    02:00 +24°C° 0.3 mm 1 mps 730 mmHg 96%
    03:00 +24°C° 0.3 mm 1 mps 730 mmHg 97%
    04:00 +24°C° 0.3 mm 1 mps 730 mmHg 97%
    05:00 +24°C° 1.4 mm 1 mps 730 mmHg 96%
    06:00 +25°C° 1.4 mm 1 mps 731 mmHg 96%
    07:00 +25°C° 1.4 mm 1 mps 731 mmHg 95%
    08:00 +25°C° 1.9 mm 2 mps 731 mmHg 94%
    09:00 +25°C° 1.9 mm 2 mps 731 mmHg 92%
    10:00 +26°C° 1.9 mm 2 mps 731 mmHg 91%
    11:00 +28°C° 0.1 mm 2 mps 731 mmHg 80%
    12:00 +30°C° 0.1 mm 2 mps 730 mmHg 70%
    13:00 +32°C° 0.1 mm 2 mps 730 mmHg 60%
    14:00 +31°C° 0 mm 2 mps 730 mmHg 63%
    15:00 +31°C° 0 mm 2 mps 729 mmHg 66%
    16:00 +30°C° 0 mm 2 mps 729 mmHg 68%
    17:00 +29°C° 0 mm 1 mps 729 mmHg 75%
    18:00 +28°C° 0 mm 1 mps 730 mmHg 81%
    19:00 +26°C° 0 mm 1 mps 730 mmHg 87%
    20:00 +26°C° 0 mm 1 mps 730 mmHg 89%
    21:00 +25°C° 0 mm 1 mps 731 mmHg 91%
    22:00 +25°C° 0 mm 1 mps 731 mmHg 93%
    23:00 +25°C° 0.6 mm 1 mps 731 mmHg 93%

    19 September, Thursday

    Time Temperature Precipitation Wind Pressure Humidity
    00:00 +25°C° 0.6 mm 1 mps 731 mmHg 93%
    01:00 +25°C° 0.6 mm 1 mps 731 mmHg 94%
    02:00 +24°C° 0.5 mm 1 mps 731 mmHg 94%
    03:00 +24°C° 0.5 mm 1 mps 731 mmHg 95%
    04:00 +24°C° 0.5 mm 1 mps 731 mmHg 95%
    05:00 +24°C° 0.2 mm 1 mps 732 mmHg 95%
    06:00 +25°C° 0.2 mm 1 mps 732 mmHg 95%
    07:00 +25°C° 0.2 mm 1 mps 733 mmHg 94%
    08:00 +26°C° 0.6 mm 1 mps 733 mmHg 88%
    09:00 +28°C° 0.6 mm 2 mps 733 mmHg 82%
    10:00 +29°C° 0.6 mm 2 mps 733 mmHg 76%
    11:00 +29°C° 1.8 mm 2 mps 732 mmHg 78%
    12:00 +29°C° 1.8 mm 2 mps 731 mmHg 81%
    13:00 +29°C° 1.8 mm 2 mps 730 mmHg 83%
    14:00 +28°C° 2.1 mm 1 mps 730 mmHg 86%
    15:00 +27°C° 2.1 mm 1 mps 730 mmHg 90%
    16:00 +25°C° 2.1 mm 0 mps 729 mmHg 93%
    17:00 +24°C° 0.2 mm 0 mps 730 mmHg 93%
    18:00 +23°C° 0.2 mm 0 mps 730 mmHg 94%
    19:00 +23°C° 0.2 mm 0 mps 731 mmHg 95%
    20:00 +23°C° 0 mm 0 mps 731 mmHg 95%
    21:00 +24°C° 0 mm 1 mps 731 mmHg 96%
    22:00 +24°C° 0 mm 1 mps 731 mmHg 96%
    23:00 +24°C° 0 mm 1 mps 731 mmHg 97%

    20 September, Friday

    Time Temperature Precipitation Wind Pressure Humidity
    00:00 +24°C° 0 mm 1 mps 731 mmHg 97%
    01:00 +23°C° 0 mm 1 mps 731 mmHg 97%
    02:00 +23°C° 0 mm 1 mps 731 mmHg 97%
    03:00 +23°C° 0 mm 1 mps 731 mmHg 97%
    04:00 +23°C° 0 mm 1 mps 731 mmHg 97%
    05:00 +23°C° 0 mm 1 mps 731 mmHg 95%
    06:00 +24°C° 0 mm 1 mps 732 mmHg 94%
    07:00 +24°C° 0 mm 1 mps 732 mmHg 92%
    08:00 +27°C° 0 mm 1 mps 732 mmHg 80%
    09:00 +29°C° 0 mm 1 mps 732 mmHg 69%
    10:00 +32°C° 0 mm 1 mps 733 mmHg 57%
    11:00 +32°C° 0.4 mm 1 mps 732 mmHg 56%
    12:00 +32°C° 0.4 mm 1 mps 731 mmHg 56%
    13:00 +33°C° 0.4 mm 1 mps 730 mmHg 55%
    14:00 +32°C° 0.1 mm 1 mps 729 mmHg 56%
    15:00 +32°C° 0.1 mm 1 mps 729 mmHg 56%
    16:00 +30°C° 0.1 mm 0 mps 729 mmHg 57%
    17:00 +29°C° 0 mm 0 mps 729 mmHg 63%
    18:00 +27°C° 0 mm 0 mps 729 mmHg 70%
    19:00 +25°C° 0 mm 0 mps 729 mmHg 77%
    20:00 +25°C° 0 mm 0 mps 730 mmHg 79%
    21:00 +26°C° 0 mm 1 mps 730 mmHg 82%
    22:00 +26°C° 0 mm 1 mps 730 mmHg 84%
    23:00 +25°C° 0.1 mm 1 mps 730 mmHg 86%

    21 September, Saturday

    Time Temperature Precipitation Wind Pressure Humidity
    00:00 +23°C° 0.1 mm 0 mps 730 mmHg 88%
    01:00 +23°C° 0.1 mm 0 mps 730 mmHg 90%
    02:00 +23°C° 0.1 mm 0 mps 730 mmHg 91%
    03:00 +22°C° 0.1 mm 0 mps 730 mmHg 92%
    04:00 +22°C° 0.1 mm 0 mps 730 mmHg 93%
    05:00 +23°C° 0.2 mm 0 mps 731 mmHg 91%
    06:00 +23°C° 0.2 mm 0 mps 731 mmHg 89%
    07:00 +24°C° 0.2 mm 0 mps 732 mmHg 88%
    08:00 +27°C° 0.5 mm 1 mps 732 mmHg 82%
    09:00 +29°C° 0.5 mm 1 mps 732 mmHg 76%
    10:00 +31°C° 0.5 mm 2 mps 732 mmHg 71%
    11:00 +30°C° 2 mm 1 mps 731 mmHg 74%
    12:00 +30°C° 2 mm 1 mps 730 mmHg 76%
    13:00 +30°C° 2 mm 1 mps 729 mmHg 79%
    14:00 +30°C° 0.7 mm 1 mps 729 mmHg 80%
    15:00 +29°C° 0.7 mm 1 mps 728 mmHg 82%
    16:00 +29°C° 0.7 mm 1 mps 728 mmHg 83%
    17:00 +28°C° 0 mm 1 mps 728 mmHg 85%
    18:00 +27°C° 0 mm 1 mps 729 mmHg 88%
    19:00 +26°C° 0 mm 1 mps 729 mmHg 91%
    20:00 +25°C° 0 mm 1 mps 729 mmHg 90%
    21:00 +23°C° 0 mm 0 mps 730 mmHg 90%
    22:00 +23°C° 0 mm 0 mps 730 mmHg 90%
    23:00 +23°C° 0 mm 0 mps 730 mmHg 90%
    Show more